Location: Helds Island Access
(38.5526°N, 91.5997°W)
Time: 11:06:39
(UTC-05:00)

Daily predictions for brighter satellites

Satellite Brightness Start Highest point End
(mag) Time Altitude Azimuth Time Altitude Azimuth Time Altitude Azimuth
Meteor 2-1 Rocket 4.5 20:58:45 10° NNW 21:04:33 80° W 21:10:12 10° S
Cosmos 2100 Rocket 4.3 20:59:42 10° N 21:05:53 52° E 21:12:03 10° SSE
USA 186 2.3 21:04:33 10° S 21:06:40 37° W 21:08:46 10° NNW
ERS-1 Rocket 4.0 21:02:50 10° SE 21:07:10 30° ENE 21:11:32 10° N
SAR-Lupe-4 4.3 21:04:11 10° SE 21:07:29 36° ENE 21:10:48 10° N
Milstar 3 Cent rocket 4.0 21:04:37 10° WSW 21:09:57 30° S 21:18:56 10° SE
Cosmos 2173 Rocket 4.3 21:04:43 10° N 21:10:45 52° E 21:16:49 10° SSE
Cosmos 1408 Rocket 4.2 21:06:54 10° SSE 21:10:47 35° E 21:14:44 10° NNE
Cosmos 2221 2.5 21:08:18 10° N 21:12:42 80° E 21:17:05 10° S
Cosmos 1242 Rocket 2.7 21:10:46 10° N 21:14:26 58° E 21:18:04 10° SSE
Cosmos 2061 Rocket 4.2 21:16:07 10° N 21:22:27 60° E 21:28:46 10° SSE
GPS 2-05 Rocket1 3.1 21:22:12 10° WSW 21:25:06 38° S 21:27:52 11° E
Helios 1B rocket 2.5 21:21:48 10° NNE 21:25:58 86° WNW 21:30:05 10° SSW
SAR-Lupe-1 4.3 21:23:41 10° SSE 21:27:12 56° ENE 21:30:44 10° N
Cosmos 1674 2.8 21:24:43 10° SSW 21:28:28 75° W 21:32:14 10° N
SL-14 R/B 4.2 21:27:18 10° SSE 21:30:41 29° E 21:34:07 10° NNE
ARGOS 4.1 21:27:51 12° SE 21:32:20 34° ENE 21:37:09 10° N
Abrixas 2.1 21:29:57 10° WSW 21:32:38 86° NNW 21:35:21 10° NE
Tiangong 1 2.0 21:31:02 10° WNW 21:33:43 39° N 21:36:22 10° E
Meteor 1-21 Rocket 4.3 21:28:19 10° S 21:33:59 87° W 21:39:35 10° N
ERBS 2.9 21:32:10 10° NNW 21:35:26 46° NE 21:37:55 16° ESE
Lacrosse 5 1.9 21:30:34 10° NW 21:35:39 82° NE 21:39:52 15° SE
Abrixas rocket 2.8 21:33:35 10° NW 21:36:45 47° NNE 21:39:18 14° ESE
SPOT 5 4.0 21:33:34 13° SE 21:37:16 32° ENE 21:41:48 10° N
Cosmos 1603 3.7 21:31:49 10° NNW 21:37:29 70° ENE 21:42:21 14° SSE
Cosmos 1356 Rocket 4.3 21:40:03 10° SSW 21:44:13 52° WNW 21:48:26 10° N
Cosmos 1802 Rocket 4.0 21:38:04 10° N 21:44:14 83° E 21:50:24 10° S
Helios 1A 3.9 21:42:12 10° S 21:46:11 46° W 21:50:11 10° NNW
Cosmos 1328 4.2 21:42:50 13° SSE 21:46:15 45° E 21:50:07 10° NNE
Cosmos 1943 3.8 21:43:53 10° N 21:49:17 43° ENE 21:53:12 18° SE
H-2A R/B 3.1 21:46:14 16° ESE 21:49:47 32° ENE 21:54:32 10° N
Cosmos 1151 Rocket 4.3 21:46:41 10° NNE 21:50:22 26° ENE 21:52:27 18° ESE
RESURS DK-1 2.4 21:46:17 10° NNW 21:50:28 81° WSW 21:53:34 17° SSE
Cosmos 1766 Rocket 3.8 21:46:45 10° SSW 21:51:04 72° W 21:55:25 10° N
Cosmos 1908 4.4 21:47:58 10° NNW 21:51:38 41° W 21:55:15 10° SSW
SL-16 R/B 3.9 21:48:42 10° NW 21:53:26 28° WSW 21:58:09 10° SSW
Cosmos 1328 Rocket 3.8 21:49:15 10° N 21:53:29 51° E 21:56:12 20° SSE
Cosmos 2058 4.0 21:53:41 20° SE 21:55:23 27° E 21:58:56 10° NNE
Cosmos 332 Rocket 3.8 21:51:50 10° NNW 21:56:46 86° ENE 22:00:25 18° SSE
Terra 3.7 21:54:55 12° E 21:57:13 17° ENE 22:00:10 10° NNE
Delta 2 Rocket 4.1 21:56:54 10° WSW 22:02:27 62° S 22:07:43 12° E
Cosmos 2016 Rocket 4.0 21:56:13 10° N 22:02:28 85° W 22:08:10 12° S
Cosmos 1515 Rocket 3.9 21:58:55 10° N 22:03:07 46° E 22:05:19 25° SE
Meteor 2-2 Rocket 4.3 21:57:54 10° N 22:03:46 80° E 22:08:26 17° SSE
H-2A R/B 4.2 22:04:24 11° E 22:05:55 13° ENE 22:07:55 10° NE
Cosmos 1743 Rocket 3.4 22:03:05 15° S 22:06:39 73° E 22:10:57 10° NNE
Cosmos 1356 3.9 22:05:30 29° SE 22:06:41 41° E 22:10:00 10° NNE
YAOGAN 6 4.2 22:03:41 10° SSW 22:06:58 31° W 22:10:19 10° NNW
Meteor 2-10 4.2 22:01:18 10° N 22:06:59 73° E 22:11:04 20° SSE
USA 245 3.4 22:09:15 29° SSE 22:11:03 67° ENE 22:15:31 10° N
Cosmos 1814 Rocket 4.0 22:06:18 10° NNW 22:11:40 84° WSW 22:15:11 22° SSE
Cosmos 1354 Rocket 4.3 22:09:52 19° SSE 22:13:18 46° ESE 22:18:18 10° NNE
Cosmos 1763 Rocket 3.4 22:09:01 10° NNW 22:14:07 80° ENE 22:17:02 26° SSE
Cosmos 841 Rocket 3.6 22:10:06 10° NNW 22:15:19 64° ENE 22:18:06 27° SE
MetOp-B 4.2 22:13:39 18° S 22:17:40 76° WSW 22:23:03 10° NNW
CZ-4C R/B 3.0 22:17:30 25° ESE 22:18:01 25° ESE 22:22:31 10° ENE
Cosmos 1626 2.7 22:17:24 34° ESE 22:18:10 39° E 22:21:40 10° NNE
Nimbus 7 Rocket 4.4 22:14:03 10° NNE 22:20:01 63° ESE 22:24:33 17° S
Cosmos 1486 Rocket 4.2 22:16:38 10° SSW 22:21:52 72° WNW 22:27:12 10° NNE
YAOGAN 11 4.1 22:19:45 26° SSE 22:22:15 90° WSW 22:26:51 10° NNW
Cosmos 1726 3.1 22:18:58 10° NNW 22:22:28 43° W 22:24:48 18° SSW
Cosmos 2233 Rocket 4.0 22:19:02 10° N 22:25:11 62° E 22:28:32 27° SSE
Cosmos 2228 Rocket 3.3 22:22:40 10° NNW 22:27:15 71° W 22:29:53 24° S
Cosmos 1703 3.4 22:29:54 41° SSE 22:30:59 57° E 22:34:54 10° NNE
USA 234 3.1 22:30:49 10° NE 22:37:21 70° SE 22:43:51 10° SW
Cosmos 2151 3.0 22:36:11 27° SSW 22:38:30 78° W 22:42:49 10° N
Cosmos 2263 Rocket 2.5 22:36:56 10° SSW 22:42:27 64° WNW 22:48:01 10° NNE
DMSP B5D2-2 4.0 22:37:31 10° NNE 22:42:44 68° ESE 22:45:03 33° S
Sich 1 4.3 22:43:19 24° E 22:43:19 24° E 22:46:30 10° NE
Cosmos 1300 4.2 22:41:16 10° NNW 22:44:40 31° W 22:46:42 19° SW
Cosmos 371 Rocket 4.4 22:40:34 10° NW 22:45:00 37° WSW 22:47:35 21° SSW
SPOT 1/Viking Rocket 3.5 22:42:40 32° S 22:45:05 78° WSW 22:50:16 10° NNW
Meteor 1-11 4.5 22:40:20 15° SSW 22:45:08 72° W 22:50:58 10° N
Cosmos 836 Rocket 4.5 22:46:44 10° NNW 22:52:03 77° ENE 22:53:47 43° SSE
H-2A ROCKET BODY 3.4 22:52:01 10° SW 22:56:15 38° SSE 23:11:36 10° E
Cosmos 540 Rocket 3.3 22:59:27 10° NNW 23:04:38 84° ENE 23:05:54 52° SSE
Cosmos 1707 Rocket 4.0 23:00:55 10° N 23:05:15 47° E 23:05:31 46° E
CZ-4B R/B 3.9 23:03:27 10° NNE 23:08:28 44° E 23:08:50 44° ESE
deb Chang Zheng 4 3.6 23:04:43 10° NNE 23:09:03 60° ESE 23:09:09 60° ESE
Tiangong 1 3.2 23:06:38 10° WNW 23:07:36 19° W 23:07:36 19° W
COSMOS 2406 4.2 23:04:09 10° N 23:09:21 35° ENE 23:11:03 29° E
IGS 5A 3.3 23:10:07 75° SSE 23:10:28 88° ENE 23:14:39 10° NNW
Cosmos 968 Rocket 3.6 23:12:06 51° ESE 23:12:34 53° ESE 23:17:41 10° NNE
Cosmos 1844 Rocket 2.9 23:14:16 47° ESE 23:14:39 48° ESE 23:20:00 10° NE
Cosmos 1455 2.4 23:13:25 10° NNW 23:17:14 64° W 23:17:15 64° W
Lacrosse 5 4.0 23:15:24 10° W 23:17:59 14° WSW 23:19:04 13° SW
Cosmos 1666 Rocket 3.5 23:19:14 67° E 23:19:15 67° E 23:23:40 10° NNE
Landsat 7 4.4 23:18:24 40° SW 23:19:36 49° W 23:24:13 10° NNW
CARTOSAT-1 3.6 23:20:20 61° SW 23:20:46 66° W 23:25:04 10° NNW
Cosmos 2084 Rocket 3.9 23:19:00 10° NNW 23:22:30 43° NE 23:22:30 43° NE
Cosmos 2285 Rocket 4.2 23:17:21 10° NNW 23:23:39 65° WSW 23:25:47 42° SSW
Cosmos 2034 Rocket 4.2 23:18:25 10° N 23:24:41 59° E 23:26:10 47° SE
Cosmos 1891 Rocket 4.4 23:21:52 10° N 23:27:54 71° E 23:29:15 53° SE
H-2A R/B 3.5 23:26:53 23° SW 23:29:05 31° W 23:33:54 10° NW
DELTA 2 DEB (DPAF) 4.4 23:29:35 55° ENE 23:29:37 55° ENE 23:33:59 10° N
Cosmos 1805 Rocket 3.9 23:29:17 53° WSW 23:29:52 58° W 23:34:09 10° N
Cosmos 1633 Rocket 3.0 23:32:56 73° NE 23:32:56 73° NE 23:37:02 10° N
Terra 2.3 23:33:49 46° SW 23:34:31 50° W 23:39:09 10° NNW
H-2A R/B 2.5 23:41:32 52° W 23:41:32 52° W 23:45:37 10° NNW
Meteor 2-10 Rocket 4.2 23:37:58 10° N 23:43:13 44° ENE 23:43:45 43° E
Delta 2 Rocket 4.2 23:39:30 10° W 23:44:44 59° SSW 23:44:44 59° SSW
CZ-2C R/B 3.6 23:40:49 10° NNE 23:44:54 32° E 23:44:54 32° E
Cosmos 1464 Rocket 4.1 23:42:25 10° NNW 23:48:32 65° W 23:50:09 48° SSW
SME Rocket 3.1 23:48:54 75° N 23:48:54 75° N 23:53:18 10° NNW
CZ-4 R/B 4.5 23:50:09 10° N 23:54:47 49° WNW 23:55:42 43° WSW
Cosmos 1869 4.3 23:51:51 10° NNW 23:55:02 41° WNW 23:55:02 41° WNW
